Location: Caltech
(34.1382°N, 118.1253°W)
Time: 10:46:17
(UTC-08:00)

Gbstr 26 Del rocket - Visible Passes

Search period start: 04 March 2015 00:00
Search period end: 14 March 2015 01:00
Orbit: 493 x 1274 km, 51.8° (Epoch: 03 March)

Date Brightness Start Highest point End Pass type
(mag) Time Alt. Az. Time Alt. Az. Time Alt. Az.
09 Mar 5.5 21:08:34 10° N 21:08:48 11° N 21:08:48 11° N visible
10 Mar 5.3 21:05:05 10° NNW 21:05:54 13° N 21:05:54 13° N visible
11 Mar 5.0 21:01:41 10° NNW 21:03:02 17° N 21:03:02 17° N visible
12 Mar 4.7 20:58:20 10° NNW 21:00:12 22° N 21:00:12 22° N visible
13 Mar 4.2 20:55:02 10° NW 20:57:25 29° N 20:57:25 29° N visible
